EW0351 Weather Reports


time (UTC)temp
C
wind
direction
speed
KPH
gust
KPH
rain 1hr
cm
rain 24hr
cm
rain mn
cm
humidity
%
barometer
mb
20260504204357 27 20 9.7 27.4 0.00 0.00 0.00 28 1001.7
20260504203850 27 313 8.0 20.9 0.00 0.00 0.00 28 1001.7
20260504203347 27 267 8.0 25.7 0.00 0.00 0.00 27 1001.7
20260504202839 27 328 9.7 25.7 0.00 0.00 0.00 27 1001.7
20260504202333 27 24 12.9 25.7 0.00 0.00 0.00 27 1001.8
20260504201827 27 344 11.3 25.7 0.00 0.00 0.00 27 1001.6
20260504200308 28 302 9.7 24.1 0.00 0.00 0.00 24 1001.7
20260504195258 28 338 8.0 22.5 0.00 0.00 0.00 25 1001.5
20260504194750 28 344 9.7 24.1 0.00 0.00 0.00 25 1001.5
20260504194245 28 316 11.3 24.1 0.00 0.00 0.00 25 1001.5
20260504193740 28 300 8.0 25.7 0.00 0.00 0.00 24 1001.5
20260504193234 28 33 8.0 25.7 0.00 0.00 0.00 24 1001.5
20260504192726 28 293 11.3 30.6 0.00 0.00 0.00 25 1001.5
20260504191715 28 276 8.0 22.5 0.00 0.00 0.00 24 1001.4
20260504191209 28 299 9.7 22.5 0.00 0.00 0.00 24 1001.4
20260504190157 29 288 8.0 22.5 0.00 0.00 0.00 24 1001.5
20260504185652 28 339 6.4 22.5 0.00 0.00 0.00 24 1001.4
20260504185149 28 325 9.7 27.4 0.00 0.00 0.00 22 1001.4
20260504184149 28 281 8.0 22.5 0.00 0.00 0.00 23 1001.4
20260504183649 28 265 8.0 25.7 0.00 0.00 0.00 21 1001.4
20260504183148 28 285 8.0 25.7 0.00 0.00 0.00 24 1001.4
20260504182648 28 273 11.3 27.4 0.00 0.00 0.00 22 1001.5
20260504182148 28 267 11.3 27.4 0.00 0.00 0.00 21 1001.6
20260504181648 28 315 11.3 25.7 0.00 0.00 0.00 21 1001.5
20260504181149 28 292 9.7 25.7 0.00 0.00 0.00 22 1001.7
20260504180649 28 296 8.0 22.5 0.00 0.00 0.00 21 1001.6
20260504175645 27 288 11.3 22.5 0.00 0.00 0.00 21 1001.6
20260504175143 27 287 11.3 27.4 0.00 0.00 0.00 23 1001.6
20260504174143 27 257 9.7 25.7 0.00 0.00 0.00 24 1001.7
20260504173644 27 323 9.7 25.7 0.00 0.00 0.00 25 1001.8
20260504173143 27 236 9.7 25.7 0.00 0.00 0.00 24 1001.8
20260504171645 27 313 9.7 24.1 0.00 0.00 0.00 26 1002.0
20260504171143 27 294 9.7 20.9 0.00 0.00 0.00 25 1002.0
20260504170644 26 290 9.7 25.7 0.00 0.00 0.00 27 1002.1
20260504170144 26 284 8.0 25.7 0.00 0.00 0.00 25 1002.2
20260504160126 23 279 6.4 16.1 0.00 0.00 0.00 38 1002.3
20260504150520 19 284 3.2 11.3 0.00 0.00 0.00 47 1002.7
20260504140916 16 290 4.8 11.3 0.00 0.00 0.00 54 1002.7
20260504140410 16 288 4.8 12.9 0.00 0.00 0.00 54 1002.7
20260504130802 13 293 0.0 8.0 0.00 0.00 0.00 59 1002.4
20260504130258 13 316 0.0 3.2 0.00 0.00 0.00 63 1002.3
20260504120146 11 32 0.0 0.0 0.00 0.00 0.00 67 1001.7
20260504081513 14 32 0.0 1.6 0.00 0.00 0.00 50 1003.4
20260504081006 14 32 0.0 1.6 0.00 0.00 0.00 50 1003.4
20260504080502 14 32 0.0 1.6 0.00 0.00 0.00 50 1003.5
20260504070349 13 38 0.0 0.0 0.00 0.00 0.00 53 1004.7
20260504060237 13 38 0.0 1.6 0.00 0.00 0.00 52 1005.8
20260504050648 14 38 0.0 0.0 0.00 0.00 0.00 48 1006.2
20260504050148 14 38 0.0 0.0 0.00 0.00 0.00 48 1006.2
20260504045645 15 38 0.0 0.0 0.00 0.00 0.00 48 1006.2
20260504045143 15 38 0.0 0.0 0.00 0.00 0.00 48 1006.2
20260504044643 15 38 0.0 0.0 0.00 0.00 0.00 47 1006.3
20260504044142 15 38 0.0 0.0 0.00 0.00 0.00 46 1006.4
20260504043641 15 38 0.0 0.0 0.00 0.00 0.00 46 1006.5
20260504043139 15 38 0.0 0.0 0.00 0.00 0.00 47 1006.7
20260504042640 16 38 0.0 0.0 0.00 0.00 0.00 45 1006.8
20260504042138 16 38 0.0 0.0 0.00 0.00 0.00 45 1006.7
20260504041638 16 38 0.0 0.0 0.00 0.00 0.00 45 1006.8
20260504035629 16 38 0.0 0.0 0.00 0.00 0.00 45 1007.1
20260504035126 16 38 0.0 0.0 0.00 0.00 0.00 45 1007.2
20260504034628 16 38 0.0 0.0 0.00 0.00 0.00 44 1007.3
20260504034122 16 38 0.0 0.0 0.00 0.00 0.00 44 1007.3
20260504033624 16 38 0.0 0.0 0.00 0.00 0.00 45 1007.3
20260504033122 16 38 0.0 0.0 0.00 0.00 0.00 44 1007.3
20260504032623 16 38 0.0 0.0 0.00 0.00 0.00 44 1007.4
20260504032124 16 38 0.0 0.0 0.00 0.00 0.00 44 1007.3
20260504031622 16 38 0.0 0.0 0.00 0.00 0.00 42 1007.4
20260504031122 17 38 0.0 0.0 0.00 0.00 0.00 43 1007.3
20260504030623 17 38 0.0 0.0 0.00 0.00 0.00 41 1007.3
20260504025124 18 38 0.0 0.0 0.00 0.00 0.00 41 1007.4
20260504024622 18 38 0.0 1.6 0.00 0.00 0.00 40 1007.5
20260504024122 18 38 0.0 1.6 0.00 0.00 0.00 39 1007.4
20260504023622 18 38 0.0 1.6 0.00 0.00 0.00 38 1007.5
20260504023122 18 38 0.0 0.0 0.00 0.00 0.00 38 1007.5
20260504022625 19 38 0.0 0.0 0.00 0.00 0.00 38 1007.5
20260504022125 19 38 0.0 4.8 0.00 0.00 0.00 37 1007.5
20260504021622 20 38 1.6 4.8 0.00 0.00 0.00 37 1007.6
20260504020612 20 38 1.6 4.8 0.00 0.00 0.00 36 1007.6
20260504014546 21 38 1.6 6.4 0.00 0.00 0.00 34 1007.6
20260504013535 21 36 1.6 6.4 0.00 0.00 0.00 34 1007.5
20260504012523 21 37 1.6 4.8 0.00 0.00 0.00 33 1007.5
20260504012016 21 37 3.2 4.8 0.00 0.00 0.00 32 1007.6
20260504011512 21 37 3.2 6.4 0.00 0.00 0.00 32 1007.5
20260504011005 22 21 3.2 6.4 0.00 0.00 0.00 32 1007.6
20260504010459 22 36 3.2 9.7 0.00 0.00 0.00 31 1007.6
20260504005954 22 48 4.8 9.7 0.00 0.00 0.00 31 1007.6
20260504004941 23 34 1.6 4.8 0.00 0.00 0.00 29 1007.7
20260504004435 23 23 1.6 4.8 0.00 0.00 0.00 28 1007.7
20260504003929 23 23 1.6 4.8 0.00 0.00 0.00 28 1007.7
20260504003423 23 22 1.6 4.8 0.00 0.00 0.00 27 1007.9
20260504002918 24 23 0.0 4.8 0.00 0.00 0.00 27 1007.9
20260504001906 25 281 0.0 1.6 0.00 0.00 0.00 25 1008.1
20260504001400 25 281 1.6 6.4 0.00 0.00 0.00 27 1008.2
20260504000853 25 278 1.6 6.4 0.00 0.00 0.00 25 1008.3
20260504000347 25 263 1.6 6.4 0.00 0.00 0.00 25 1008.4
20260503235842 25 350 1.6 6.4 0.00 0.00 0.00 25 1008.4
20260503235335 25 340 1.6 4.8 0.00 0.00 0.00 25 1008.5
20260503234830 26 286 1.6 8.0 0.00 0.00 0.00 25 1008.4
20260503234322 25 284 3.2 8.0 0.00 0.00 0.00 24 1008.5
20260503233816 25 300 1.6 8.0 0.00 0.00 0.00 26 1008.5
20260503233312 25 325 0.0 4.8 0.00 0.00 0.00 25 1008.6
20260503232804 25 281 1.6 6.4 0.00 0.00 0.00 24 1008.6
20260503232258 25 281 3.2 6.4 0.00 0.00 0.00 24 1008.6
20260503231753 25 276 3.2 11.3 0.00 0.00 0.00 25 1008.7
20260503231247 25 304 3.2 9.7 0.00 0.00 0.00 25 1008.7
20260503230741 25 227 3.2 11.3 0.00 0.00 0.00 25 1008.3
20260503230237 25 275 3.2 11.3 0.00 0.00 0.00 24 1008.5
20260503225729 25 267 1.6 4.8 0.00 0.00 0.00 24 1008.7
20260503225223 25 290 3.2 11.3 0.00 0.00 0.00 24 1008.8
20260503224717 25 275 4.8 11.3 0.00 0.00 0.00 24 1008.8
20260503224212 25 225 3.2 12.9 0.00 0.00 0.00 25 1008.7
20260503223704 25 272 1.6 12.9 0.00 0.00 0.00 24 1008.8
20260503223159 25 314 3.2 8.0 0.00 0.00 0.00 24 1008.8
20260503222654 25 44 1.6 8.0 0.00 0.00 0.00 24 1008.8
20260503222148 25 26 1.6 8.0 0.00 0.00 0.00 25 1008.8
20260503221641 25 273 1.6 8.0 0.00 0.00 0.00 25 1008.9
20260503221136 25 38 4.8 14.5 0.00 0.00 0.00 26 1008.9
20260503220630 24 342 8.0 19.3 0.00 0.00 0.00 25 1009.0
20260503220123 25 22 8.0 19.3 0.00 0.00 0.00 25 1009.0
20260503215616 25 307 4.8 16.1 0.00 0.00 0.00 25 1009.0
20260503215110 25 51 4.8 17.7 0.00 0.00 0.00 25 1009.0
20260503214605 25 22 3.2 17.7 0.00 0.00 0.00 25 1009.0
20260503214059 25 31 1.6 16.1 0.00 0.00 0.00 26 1009.1
20260503213553 25 270 4.8 17.7 0.00 0.00 0.00 25 1009.2
20260503213048 25 33 6.4 17.7 0.00 0.00 0.00 24 1009.3
20260503212542 25 11 6.4 14.5 0.00 0.00 0.00 25 1009.3
20260503212034 25 298 4.8 12.9 0.00 0.00 0.00 26 1009.3
20260503211023 25 227 3.2 11.3 0.00 0.00 0.00 27 1009.5
20260503210517 24 275 4.8 11.3 0.00 0.00 0.00 26 1009.6
20260503205506 24 307 6.4 19.3 0.00 0.00 0.00 27 1009.9